SCP
-0 -0 0 0 0 0 0 0 0 0 0 0 0 0 0 0 0 0 0 0 0 0 0 0 0 0 0 0 0 0 0 0 0 0 0 0 0 0 0 0 0 0 0 0
0 0 0 0 0 0 0 0 0 0 0 0 0 0 0 0 0 0 0 0 0 0 0 0 0 0 0 0 0 0 0 0 0 0 0 0 0 0 0 0 0 0 0 0
0 0 0 0 0 0 0 0 0 0 0 0 0 0 0 0 0 0 0 0 0 0 0 0 0 0 0 0 0 0 0 0 0 0 0 0 0 0 0 0 0 0 0 0
0 0 0 0 -0 0 0 0 0 0 0 0 0 0 0 0 0 0 0 0 0 0 0 0 0 0 0 0 0 0 0 0 0 0 0 0 0 0 0 0 0 0 0 0
0 0 0 0 0 0 0 0 0 0 0 0 0 0 0 0 0 0 0 0 0 0 0 0 0 0 0 0 0 0 0 0 0 0 0 0 0 0 0 0 0 0 0 0
0 0 0 0 0 0 0 0 0 0 0 0 0 0 0 0 0 0 0 0 0 0 0 0 0 0 0 0 0 0 0 0 0 0 0 0 0 0 0 0 0 0 0 0
0 0 0 0 0 0 0 0 0 0 0 0 0 0 0 0 0 0 0 0 0 0 0 0 0 0 0 0 0 0 0 0 0 0 0 0 0 0 0 0 0 0 0 0
0 0 0 0 0 0 0 0 0 0 0 0 0 0 0 0 0 0 0 0 0 0 0 0 0 0 0 0 0 0 0 0 0 0 0 0 0 0 0 0 0 0 0 0
0 0 0 0 0 0 0 0 0 0 0 0 0 0 0 0 0 0 0 0 0 0 0 0 0 0 0 0 0 0 0 0 0 0 0 0 -0 -0 0 0 0 0 0 0
0 0 0 0 0 0 0 0 0 0 0 0 0 0 0 0 0 0 0 0 0 0 0 0 0 0 0 0 0 0 0 0 0 0 0 0 0 0 0 0 0 0 0 0
0 0 0 0 0 0 0 0 0 0 0 0 0 0 0 0 0 0 0 0 0 0 0 0 0 0 0 0 0 0 0 0 0 0 0 0 0 0 0 0 0 0 0 0
0 0 0 0 0 0 0 0 0 0 0 0 0 0 0 0 0 0 0 0 0 0 0 0 0 0 0 0 0 0 0 0 0 0 0 0 0 0 0 0 0 0 0 0
0 0 0 0 0 0 0 0 0 0 0 0 0 0 0 0 0 0 0 0 0 0 0 0 0 0 0 0 0 0 0 0 0 0 0 0 -0 -0 -0 -0 -0 -0 -0 -0
0 0 0 0 0 0 0 0 0 0 0 0 0 0 0 0 0 0 0 0 0 0 0 0 0 0 0 0 0 0 0 0 0 0 0 0 0 0 0 0 0 0 0 0
0 0 0 0 0 0 0 0 0 0 0 0 0 0 0 0 0 0 0 0 0 0 0 0 0 0 0 0 0 0 0 0 0 0 0 0 0 0 0 0 0 0 0 0
0 -0 0 0 0 0 0 0 0 0 0 0 0 0 0 0 0 0 0 0 0 0 0 0 0 0 0 0 0 0 0 0 0 0 0 0 0 0 0 0 0 0 0 0
0 0 -0 0 0 0 0 0 0 0 0 0 0 0 0 0 0 0 0 0 0 0 0 0 0 0 0 0 0 0 0 0 0 0 0 0 0 0 0 0 0 0 0 0
0 0 0 0 0 0 0 0 0 0 0 0 0 0 0 0 0 0 0 0 0 0 0 0 0 0 0 0 0 0 0 0 0 0 0 0 0 0 0 0 0 0 0 0
0 0 0 0 0 0 0 0 0 0 0 0 0 0 0 0 0 0 0 0 0 0 0 0 0 0 0 0 0 0 0 0 0 0 0 0 0 0 0 0 0 0 0 0
0 0 0 0 0 0 0 0 0 0 0 0 0 0 0 0 0 0 0 0 0 0 0 0 0 0 0 0 0 0 0 0 0 0 0 0 0 0 0 0 0 0 0 0
0 0 0 0 0 0 0 0 0 0 0 0 0 0 0 0 0 0 0 0 0 0 0 0 0 0 0 0 0 0 0 0 0 0 0 0 0 0 0 0 0 0 0 0
0 0 0 0 0 0 0 0 0 0 0 0 0 0 0 0 0 0 0 0 0 0 0 0 0 0 0 0 0 0 0 0 0 0 0 0 0 0 0 0 0 0 0 0
0 0 0 0 0 0 0 0 0 0 0 0 0 0 0 0 0 0 0 0 0 0 0 0 0 0 0 0 0 0 0 0 0 0 0 0 0 0 0 0 0 0 0 0
0 0 0 0 0 0 0 0 0 0 0 0 0 0 0 0 0 0 0 0 0 0 0 0 0 0 0 0 0 0 0 0 0 0 0 0 0 0 0 0 0 0 0 0
0 0 0 0 0 0 0 0 0 0 0 0 0 0 0 0 0 0 0 0 0 0 0 0 0 0 0 0 0 0 0 0 0 0 0 0 0 0 0 0 0 0 0 0
0 0 0 0 0 0 0 0 0 0 0 0 0 0 0 0 0 0 0 0 0 0 0 0 0 0 0 0 0 0 0 0 0 0 0 0 0 0 0 0 0 0 0 0
0 0 0 0 0 0 0 0 0 0 0 0 0 0 0 0 0 0 0 0 0 0 0 0 0 0 0 0 0 0 0 0 0 0 0 0 0 0 0 0 0 0 0 0
Wind_Speed_500mb
30 23 24 23 19 18 21 11 7 16 46 22 18 23 16 24 21 33 17 13 20 20 16 14 15 17 9 2 12 12 18 12 25 38 13 14 27 44 45 22 24 14 22 37
46 37 27 23 32 27 28 10 17 15 47 18 25 27 29 26 21 28 21 27 23 20 21 13 20 21 9 5 6 7 8 11 6 10 21 4 16 31 28 31 18 19 24 26
47 44 42 31 23 43 31 13 9 12 34 37 28 36 33 34 25 28 40 15 27 25 29 24 11 8 4 14 9 20 11 7 19 21 12 8 12 34 37 34 20 39 39 53
56 51 45 45 27 52 33 25 13 24 15 30 25 29 17 39 27 36 34 21 38 30 24 25 17 19 12 17 22 17 4 9 25 42 45 46 40 29 24 38 45 44 55 47
62 61 59 56 46 53 47 17 11 13 21 45 40 28 33 33 37 23 26 34 28 36 35 37 26 28 27 19 18 15 15 10 18 35 45 38 40 43 48 49 50 47 53 56
67 69 65 63 65 62 54 48 21 11 22 15 28 36 43 21 32 37 38 23 30 25 24 20 14 5 6 9 4 2 5 2 6 22 24 11 14 44 48 53 53 48 46 56
73 72 77 74 73 78 66 52 29 14 19 22 31 22 49 43 27 30 23 27 19 10 3 2 9 18 25 31 36 39 16 14 6 13 17 21 13 19 18 29 40 43 47 51
71 72 80 85 80 78 85 59 54 23 8 32 34 42 24 29 50 33 34 25 8 10 9 3 6 7 5 23 34 37 37 24 16 21 35 39 49 44 25 27 39 33 32 40
81 76 79 80 85 85 95 78 69 44 18 26 32 26 42 18 15 7 11 15 27 12 5 5 12 11 3 6 4 11 24 32 23 24 23 28 28 28 30 10 18 26 30 30
76 72 83 84 90 87 82 75 78 59 23 45 35 24 20 26 22 10 9 15 13 22 11 13 18 21 7 12 10 11 9 8 27 28 24 13 16 18 16 23 15 44 35 45
70 88 74 89 92 94 92 85 89 83 38 43 54 42 44 36 41 17 15 11 6 11 19 14 15 15 19 23 28 11 18 13 16 15 18 30 8 6 4 7 47 48 44 21
75 81 82 78 92 96 93 65 76 93 56 19 57 44 52 48 43 42 32 7 11 21 12 12 9 12 9 22 23 26 25 28 20 17 9 9 26 18 39 36 37 35 37 30
79 80 90 83 99 93 92 84 63 85 56 34 34 48 60 61 51 37 26 26 22 13 10 2 3 12 3 17 26 31 28 33 26 29 36 43 64 51 42 32 29 24 27 33
87 83 93 88 98 92 96 93 74 91 34 16 20 47 44 66 70 68 50 35 23 20 20 13 10 13 17 12 16 20 21 14 23 25 34 43 53 51 42 27 33 30 37 42
91 84 89 70 98 96 96 92 83 104 70 13 18 37 48 55 61 57 62 49 45 28 14 11 16 21 22 25 21 24 35 36 26 29 47 41 50 49 45 48 40 42 45 45
85 82 74 75 90 96 87 42 100 111 65 16 10 22 35 45 54 57 50 47 38 37 18 17 23 48 16 9 22 53 72 65 57 48 63 55 58 52 50 53 54 58 49 47
80 80 69 74 85 97 88 22 35 114 89 21 9 10 20 40 32 28 27 29 24 26 21 22 37 40 35 22 34 68 54 46 47 55 52 41 65 46 51 53 53 48 49 47
71 69 71 74 74 81 68 40 46 102 60 19 9 7 12 33 17 16 24 19 24 19 15 21 21 25 24 18 43 49 55 67 62 64 61 62 72 65 64 60 54 52 58 55
78 72 54 74 66 39 64 45 89 79 30 17 11 15 11 28 16 14 17 17 9 15 12 17 15 15 13 11 15 28 25 24 39 46 40 42 53 59 56 54 55 56 62 54
71 62 44 16 37 67 64 53 35 24 16 13 6 19 10 29 24 17 18 14 7 7 13 14 15 27 54 5 13 24 33 35 37 37 28 30 34 36 41 43 43 45 48 52
38 14 14 56 87 53 15 11 10 10 8 16 12 18 15 21 12 9 17 9 8 7 7 9 7 13 3 13 17 22 29 31 33 36 38 39 43 46 48 46 41 41 41 41
25 34 56 32 13 12 9 7 8 6 8 9 15 19 21 16 15 6 11 8 8 12 8 7 7 3 4 14 20 24 28 31 32 35 38 39 41 42 43 43 40 38 35 35
63 25 10 9 5 7 9 9 8 9 10 19 19 13 13 10 8 8 7 11 11 6 9 8 6 4 12 23 26 24 24 25 28 30 30 31 32 33 33 34 35 37 32 29
14 7 8 5 7 5 4 9 12 12 16 35 37 16 7 9 7 6 10 8 4 7 8 14 4 8 19 23 24 27 27 25 24 23 24 25 25 25 25 24 25 25 22 23
11 8 8 7 6 13 9 14 18 17 32 27 19 13 10 6 8 7 6 8 10 10 7 3 6 14 20 24 26 27 26 25 23 23 21 20 19 19 19 17 16 15 15 18
12 18 8 6 9 6 10 17 13 23 32 20 13 8 7 6 6 13 14 9 11 5 4 3 12 17 21 24 25 24 24 23 21 19 18 15 13 11 9 4 5 10 17 23
12 9 17 15 18 14 6 6 7 27 14 6 6 10 8 6 6 7 5 6 5 5 1 7 13 17 20 20 20 20 18 16 14 11 8 6 1 4 9 12 17 19 22 24
Wind_Direction_500mb
246 258 247 228 208 199 197 197 223 210 178 183 207 228 212 233 228 220 230 246 252 231 183 232 234 232 225 145 153 169 217 252 244 241 232 262 261 226 218 220 223 240 267 269
239 240 232 235 213 203 192 208 219 212 175 207 216 228 229 235 226 219 225 224 229 230 253 247 254 248 70 90 51 47 347 233 245 257 231 207 248 234 245 242 247 236 231 256
242 239 224 217 230 209 202 190 198 190 203 233 236 219 223 221 224 239 227 231 234 225 236 233 252 263 85 37 80 6 94 224 235 239 270 6 219 237 235 231 237 242 245 257
239 239 239 223 217 211 207 192 223 196 197 221 219 225 222 217 216 215 213 228 229 223 227 214 217 218 261 256 273 267 197 235 237 256 268 275 274 271 258 239 240 235 255 252
239 232 239 228 210 208 220 194 195 209 262 216 204 217 225 227 216 190 213 230 227 226 234 232 248 266 269 276 23 241 180 243 268 275 269 266 267 264 260 255 253 257 258 261
243 236 230 227 216 199 218 228 228 216 227 220 206 214 220 228 219 221 236 239 232 230 236 264 267 189 204 191 143 11 310 273 243 254 284 331 257 244 251 250 248 250 253 260
241 237 228 227 225 205 212 218 219 198 228 215 217 222 224 228 219 216 214 221 214 133 101 278 265 257 250 246 239 231 232 244 268 286 307 259 262 316 293 280 262 257 261 264
239 237 229 222 223 224 211 216 211 215 241 213 223 222 215 225 224 227 235 224 264 209 163 154 266 237 238 231 230 227 227 224 248 246 257 276 283 278 262 274 280 280 271 260
235 235 235 234 220 222 221 216 215 208 240 227 220 222 226 207 201 164 207 180 176 164 119 151 216 229 281 249 225 219 234 230 226 241 253 266 275 279 274 259 257 39 354 335
242 243 230 229 223 222 221 218 213 209 220 233 218 209 202 203 204 225 142 180 186 189 205 228 234 236 203 234 227 187 179 197 229 241 246 248 275 329 298 238 286 321 307 305
249 238 228 228 223 220 215 215 217 210 220 231 219 221 224 218 214 210 149 135 178 188 212 221 219 236 226 228 241 241 238 237 232 234 249 258 152 23 247 313 305 292 283 292
246 246 246 219 222 223 215 215 215 214 210 228 219 220 221 219 216 210 183 194 141 191 204 205 216 224 223 228 246 227 240 232 249 230 245 232 294 267 290 281 268 274 268 287
243 249 244 235 218 220 219 212 211 192 200 206 206 210 214 211 210 203 203 226 225 220 241 266 265 255 326 236 234 250 244 250 251 263 266 277 292 303 289 265 264 273 277 286
239 245 237 224 217 217 216 211 212 195 186 207 201 206 205 217 221 221 221 232 225 237 236 237 249 244 211 257 275 282 270 284 251 258 268 277 275 273 262 272 267 269 282 285
233 240 235 234 210 213 212 214 213 199 190 162 158 194 210 217 216 222 223 225 229 214 215 226 244 248 253 252 263 256 250 250 251 256 267 273 276 280 274 275 273 278 283 289
224 225 237 223 200 206 203 203 210 195 192 164 152 187 189 201 204 210 214 221 219 226 222 235 249 243 260 256 245 251 252 251 249 256 260 271 274 275 266 273 274 284 276 282
217 218 230 224 199 200 197 202 186 187 194 158 133 154 174 182 166 175 188 194 202 214 228 234 247 258 253 251 252 254 258 263 250 257 262 272 270 264 273 273 282 272 275 277
207 215 215 214 196 202 199 207 184 177 176 164 154 113 144 170 158 164 182 189 205 214 229 246 240 254 234 250 252 262 257 252 255 256 266 260 274 278 274 275 270 267 277 278
198 204 207 181 194 201 167 148 170 174 173 148 158 149 162 165 161 151 165 186 202 214 221 231 226 233 239 247 294 304 283 264 267 267 276 279 273 276 277 278 279 277 279 279
191 186 185 149 190 189 143 146 159 158 167 134 146 139 135 165 163 170 154 170 209 225 221 220 224 243 251 327 283 284 288 287 290 301 294 285 288 291 292 289 282 277 278 281
172 114 141 142 141 137 131 140 151 121 137 144 136 175 135 172 159 151 192 173 185 226 205 214 230 243 211 274 281 278 281 284 287 285 286 286 286 290 289 289 287 284 282 279
140 131 129 129 87 88 127 121 107 126 131 144 154 133 133 152 157 145 169 191 188 231 137 208 239 122 359 328 319 310 299 292 288 286 286 284 283 283 282 281 277 274 273 270
123 120 63 77 37 124 141 127 103 129 174 162 148 116 123 129 146 120 147 190 218 112 202 228 250 78 326 330 324 316 316 308 297 287 285 284 282 278 275 270 269 264 261 257
51 62 85 65 97 101 108 140 134 125 135 135 132 113 117 113 155 132 189 181 163 231 229 242 93 6 331 333 329 326 324 319 315 308 298 289 285 279 272 268 264 263 254 247
61 17 74 69 90 46 68 90 105 106 130 122 100 91 111 132 149 189 156 184 219 215 244 47 42 334 334 333 331 330 327 326 322 316 308 301 291 282 277 267 262 250 234 220
50 42 95 88 103 63 43 62 82 113 132 121 95 112 148 163 191 189 204 195 204 162 87 12 325 326 328 327 330 333 333 332 326 322 319 315 307 293 285 265 210 196 179 169
47 48 47 40 48 73 98 104 121 143 130 138 149 152 161 102 178 224 219 207 95 102 39 315 318 328 330 332 336 338 339 338 334 333 333 336 41 125 127 130 130 136 140 146
Wind_Speed_850mb
30 23 24 23 19 18 21 11 7 16 46 22 18 23 16 24 21 33 17 13 20 20 16 14 15 17 9 2 12 12 18 12 25 38 13 14 27 44 45 22 24 14 22 37
46 37 27 23 32 27 28 10 17 15 47 18 25 27 29 26 21 28 21 27 23 20 21 13 20 21 9 5 6 7 8 11 6 10 21 4 16 31 28 31 18 19 24 26
47 44 42 31 23 43 31 13 9 12 34 37 28 36 33 34 25 28 40 15 27 25 29 24 11 8 4 14 9 20 11 7 19 21 12 8 12 34 37 34 20 39 39 53
56 51 45 45 27 52 33 25 13 24 15 30 25 29 17 39 27 36 34 21 38 30 24 25 17 19 12 17 22 17 4 9 25 42 45 46 40 29 24 38 45 44 55 47
62 61 59 56 46 53 47 17 11 13 21 45 40 28 33 33 37 23 26 34 28 36 35 37 26 28 27 19 18 15 15 10 18 35 45 38 40 43 48 49 50 47 53 56
67 69 65 63 65 62 54 48 21 11 22 15 28 36 43 21 32 37 38 23 30 25 24 20 14 5 6 9 4 2 5 2 6 22 24 11 14 44 48 53 53 48 46 56
73 72 77 74 73 78 66 52 29 14 19 22 31 22 49 43 27 30 23 27 19 10 3 2 9 18 25 31 36 39 16 14 6 13 17 21 13 19 18 29 40 43 47 51
71 72 80 85 80 78 85 59 54 23 8 32 34 42 24 29 50 33 34 25 8 10 9 3 6 7 5 23 34 37 37 24 16 21 35 39 49 44 25 27 39 33 32 40
81 76 79 80 85 85 95 78 69 44 18 26 32 26 42 18 15 7 11 15 27 12 5 5 12 11 3 6 4 11 24 32 23 24 23 28 28 28 30 10 18 26 30 30
76 72 83 84 90 87 82 75 78 59 23 45 35 24 20 26 22 10 9 15 13 22 11 13 18 21 7 12 10 11 9 8 27 28 24 13 16 18 16 23 15 44 35 45
70 88 74 89 92 94 92 85 89 83 38 43 54 42 44 36 41 17 15 11 6 11 19 14 15 15 19 23 28 11 18 13 16 15 18 30 8 6 4 7 47 48 44 21
75 81 82 78 92 96 93 65 76 93 56 19 57 44 52 48 43 42 32 7 11 21 12 12 9 12 9 22 23 26 25 28 20 17 9 9 26 18 39 36 37 35 37 30
79 80 90 83 99 93 92 84 63 85 56 34 34 48 60 61 51 37 26 26 22 13 10 2 3 12 3 17 26 31 28 33 26 29 36 43 64 51 42 32 29 24 27 33
87 83 93 88 98 92 96 93 74 91 34 16 20 47 44 66 70 68 50 35 23 20 20 13 10 13 17 12 16 20 21 14 23 25 34 43 53 51 42 27 33 30 37 42
91 84 89 70 98 96 96 92 83 104 70 13 18 37 48 55 61 57 62 49 45 28 14 11 16 21 22 25 21 24 35 36 26 29 47 41 50 49 45 48 40 42 45 45
85 82 74 75 90 96 87 42 100 111 65 16 10 22 35 45 54 57 50 47 38 37 18 17 23 48 16 9 22 53 72 65 57 48 63 55 58 52 50 53 54 58 49 47
80 80 69 74 85 97 88 22 35 114 89 21 9 10 20 40 32 28 27 29 24 26 21 22 37 40 35 22 34 68 54 46 47 55 52 41 65 46 51 53 53 48 49 47
71 69 71 74 74 81 68 40 46 102 60 19 9 7 12 33 17 16 24 19 24 19 15 21 21 25 24 18 43 49 55 67 62 64 61 62 72 65 64 60 54 52 58 55
78 72 54 74 66 39 64 45 89 79 30 17 11 15 11 28 16 14 17 17 9 15 12 17 15 15 13 11 15 28 25 24 39 46 40 42 53 59 56 54 55 56 62 54
71 62 44 16 37 67 64 53 35 24 16 13 6 19 10 29 24 17 18 14 7 7 13 14 15 27 54 5 13 24 33 35 37 37 28 30 34 36 41 43 43 45 48 52
38 14 14 56 87 53 15 11 10 10 8 16 12 18 15 21 12 9 17 9 8 7 7 9 7 13 3 13 17 22 29 31 33 36 38 39 43 46 48 46 41 41 41 41
25 34 56 32 13 12 9 7 8 6 8 9 15 19 21 16 15 6 11 8 8 12 8 7 7 3 4 14 20 24 28 31 32 35 38 39 41 42 43 43 40 38 35 35
63 25 10 9 5 7 9 9 8 9 10 19 19 13 13 10 8 8 7 11 11 6 9 8 6 4 12 23 26 24 24 25 28 30 30 31 32 33 33 34 35 37 32 29
14 7 8 5 7 5 4 9 12 12 16 35 37 16 7 9 7 6 10 8 4 7 8 14 4 8 19 23 24 27 27 25 24 23 24 25 25 25 25 24 25 25 22 23
11 8 8 7 6 13 9 14 18 17 32 27 19 13 10 6 8 7 6 8 10 10 7 3 6 14 20 24 26 27 26 25 23 23 21 20 19 19 19 17 16 15 15 18
12 18 8 6 9 6 10 17 13 23 32 20 13 8 7 6 6 13 14 9 11 5 4 3 12 17 21 24 25 24 24 23 21 19 18 15 13 11 9 4 5 10 17 23
12 9 17 15 18 14 6 6 7 27 14 6 6 10 8 6 6 7 5 6 5 5 1 7 13 17 20 20 20 20 18 16 14 11 8 6 1 4 9 12 17 19 22 24
Wind_Direction_850mb
246 258 247 228 208 199 197 197 223 210 178 183 207 228 212 233 228 220 230 246 252 231 183 232 234 232 225 145 153 169 217 252 244 241 232 262 261 226 218 220 223 240 267 269
239 240 232 235 213 203 192 208 219 212 175 207 216 228 229 235 226 219 225 224 229 230 253 247 254 248 70 90 51 47 347 233 245 257 231 207 248 234 245 242 247 236 231 256
242 239 224 217 230 209 202 190 198 190 203 233 236 219 223 221 224 239 227 231 234 225 236 233 252 263 85 37 80 6 94 224 235 239 270 6 219 237 235 231 237 242 245 257
239 239 239 223 217 211 207 192 223 196 197 221 219 225 222 217 216 215 213 228 229 223 227 214 217 218 261 256 273 267 197 235 237 256 268 275 274 271 258 239 240 235 255 252
239 232 239 228 210 208 220 194 195 209 262 216 204 217 225 227 216 190 213 230 227 226 234 232 248 266 269 276 23 241 180 243 268 275 269 266 267 264 260 255 253 257 258 261
243 236 230 227 216 199 218 228 228 216 227 220 206 214 220 228 219 221 236 239 232 230 236 264 267 189 204 191 143 11 310 273 243 254 284 331 257 244 251 250 248 250 253 260
241 237 228 227 225 205 212 218 219 198 228 215 217 222 224 228 219 216 214 221 214 133 101 278 265 257 250 246 239 231 232 244 268 286 307 259 262 316 293 280 262 257 261 264
239 237 229 222 223 224 211 216 211 215 241 213 223 222 215 225 224 227 235 224 264 209 163 154 266 237 238 231 230 227 227 224 248 246 257 276 283 278 262 274 280 280 271 260
235 235 235 234 220 222 221 216 215 208 240 227 220 222 226 207 201 164 207 180 176 164 119 151 216 229 281 249 225 219 234 230 226 241 253 266 275 279 274 259 257 39 354 335
242 243 230 229 223 222 221 218 213 209 220 233 218 209 202 203 204 225 142 180 186 189 205 228 234 236 203 234 227 187 179 197 229 241 246 248 275 329 298 238 286 321 307 305
249 238 228 228 223 220 215 215 217 210 220 231 219 221 224 218 214 210 149 135 178 188 212 221 219 236 226 228 241 241 238 237 232 234 249 258 152 23 247 313 305 292 283 292
246 246 246 219 222 223 215 215 215 214 210 228 219 220 221 219 216 210 183 194 141 191 204 205 216 224 223 228 246 227 240 232 249 230 245 232 294 267 290 281 268 274 268 287
243 249 244 235 218 220 219 212 211 192 200 206 206 210 214 211 210 203 203 226 225 220 241 266 265 255 326 236 234 250 244 250 251 263 266 277 292 303 289 265 264 273 277 286
239 245 237 224 217 217 216 211 212 195 186 207 201 206 205 217 221 221 221 232 225 237 236 237 249 244 211 257 275 282 270 284 251 258 268 277 275 273 262 272 267 269 282 285
233 240 235 234 210 213 212 214 213 199 190 162 158 194 210 217 216 222 223 225 229 214 215 226 244 248 253 252 263 256 250 250 251 256 267 273 276 280 274 275 273 278 283 289
224 225 237 223 200 206 203 203 210 195 192 164 152 187 189 201 204 210 214 221 219 226 222 235 249 243 260 256 245 251 252 251 249 256 260 271 274 275 266 273 274 284 276 282
217 218 230 224 199 200 197 202 186 187 194 158 133 154 174 182 166 175 188 194 202 214 228 234 247 258 253 251 252 254 258 263 250 257 262 272 270 264 273 273 282 272 275 277
207 215 215 214 196 202 199 207 184 177 176 164 154 113 144 170 158 164 182 189 205 214 229 246 240 254 234 250 252 262 257 252 255 256 266 260 274 278 274 275 270 267 277 278
198 204 207 181 194 201 167 148 170 174 173 148 158 149 162 165 161 151 165 186 202 214 221 231 226 233 239 247 294 304 283 264 267 267 276 279 273 276 277 278 279 277 279 279
191 186 185 149 190 189 143 146 159 158 167 134 146 139 135 165 163 170 154 170 209 225 221 220 224 243 251 327 283 284 288 287 290 301 294 285 288 291 292 289 282 277 278 281
172 114 141 142 141 137 131 140 151 121 137 144 136 175 135 172 159 151 192 173 185 226 205 214 230 243 211 274 281 278 281 284 287 285 286 286 286 290 289 289 287 284 282 279
140 131 129 129 87 88 127 121 107 126 131 144 154 133 133 152 157 145 169 191 188 231 137 208 239 122 359 328 319 310 299 292 288 286 286 284 283 283 282 281 277 274 273 270
123 120 63 77 37 124 141 127 103 129 174 162 148 116 123 129 146 120 147 190 218 112 202 228 250 78 326 330 324 316 316 308 297 287 285 284 282 278 275 270 269 264 261 257
51 62 85 65 97 101 108 140 134 125 135 135 132 113 117 113 155 132 189 181 163 231 229 242 93 6 331 333 329 326 324 319 315 308 298 289 285 279 272 268 264 263 254 247
61 17 74 69 90 46 68 90 105 106 130 122 100 91 111 132 149 189 156 184 219 215 244 47 42 334 334 333 331 330 327 326 322 316 308 301 291 282 277 267 262 250 234 220
50 42 95 88 103 63 43 62 82 113 132 121 95 112 148 163 191 189 204 195 204 162 87 12 325 326 328 327 330 333 333 332 326 322 319 315 307 293 285 265 210 196 179 169
47 48 47 40 48 73 98 104 121 143 130 138 149 152 161 102 178 224 219 207 95 102 39 315 318 328 330 332 336 338 339 338 334 333 333 336 41 125 127 130 130 136 140 146